Roseau, MN

10:47 AM CDT on July 23, 2017 (GMT -0500)
Roseau Municipal-Billberg

Weather History for KROX - May, 2013

Change the Weather History Date:

Saturday, May 25, 2013

  Actual Average Record
Temperature  
Mean Temperature 57 °F -  
Max Temperature 66 °F 69 °F 87 °F (1959)
Min Temperature 48 °F 42 °F 24 °F (1983)
Degree Days  
Heating Degree Days 8    
Growing Degree Days 7 (Base 50)    
Moisture  
Dew Point 48 °F    
Average Humidity 71    
Maximum Humidity 87    
Minimum Humidity 52    
Precipitation  
Precipitation 0.06 in - - ()
Sea Level Pressure  
Sea Level Pressure 30.19 in    
Wind  
Wind Speed 9 mph (ESE)    
Max Wind Speed 16 mph    
Max Gust Speed 22 mph    
Visibility 9 miles    
Events Rain    
Averages and records for this station are not official NWS values.
T = Trace of Precipitation, MM = Missing Value Source: NWS Daily Summary

Daily Weather History Graph

Daily Weather History Graph

Search for Another Location

Airport or City:

Trip Planner

Search our weather history database for the weather conditions in past years. The results will help you decide how hot, cold, wet, or windy it might be!

Date:

Astronomy

May. 25, 2013 Rise Set
Actual Time 5:29 AM CDT 9:10 PM CDT
Civil Twilight 4:49 AM CDT 9:51 PM CDT
Nautical Twilight 3:55 AM CDT 10:45 PM CDT
Astronomical Twilight 2:37 AM CDT 12:04 AM CDT
Moon 9:58 PM CDT (5/25) 5:59 AM CDT (5/25)
Length of Visible Light 17h 01m
Length of Day
15h 41m
Full, 100% of the Moon is Illuminated
May 25
Full
May 31
Last Quarter
Jun 8
New
Jun 16
First Quarter
Jun 23
Full

Hourly Weather History & Observations

Time (CDT) Temp. Dew Point Humidity Pressure Visibility Wind Dir Wind Speed Gust Speed Precip Events Conditions
12:15 AM 53.6 °F 44.6 °F 72% 30.20 in 10.0 mi SE 8.1 mph - N/A   Scattered Clouds
12:34 AM 53.6 °F 44.6 °F 72% 30.20 in 10.0 mi South 8.1 mph - N/A   Drizzle
12:54 AM 55.4 °F 44.6 °F 67% 30.20 in 10.0 mi South 9.2 mph - N/A   Mostly Cloudy
1:15 AM 53.6 °F 44.6 °F 72% 30.20 in 10.0 mi SSE 10.4 mph - N/A   Drizzle
1:34 AM 53.6 °F 44.6 °F 72% 30.20 in 10.0 mi SSE 9.2 mph - N/A   Overcast
1:54 AM 53.6 °F 44.6 °F 72% 30.20 in 10.0 mi SE 5.8 mph - N/A Rain Light Rain
2:15 AM 53.6 °F 44.6 °F 72% 30.19 in 10.0 mi ESE 3.5 mph - N/A Rain Light Rain
2:34 AM 53.6 °F 44.6 °F 72% 30.20 in 10.0 mi Calm Calm - N/A   Overcast
2:54 AM 53.6 °F 46.4 °F 77% 30.20 in 10.0 mi East 4.6 mph - N/A   Overcast
3:15 AM 53.6 °F 44.6 °F 72% 30.20 in 10.0 mi ESE 4.6 mph - N/A   Overcast
3:34 AM 53.6 °F 44.6 °F 72% 30.19 in 10.0 mi ESE 5.8 mph - N/A   Overcast
3:55 AM 53.6 °F 44.6 °F 72% 30.19 in 10.0 mi ESE 5.8 mph - N/A   Overcast
4:14 AM 53.6 °F 44.6 °F 72% 30.19 in 10.0 mi ESE 5.8 mph - N/A   Overcast
4:34 AM 53.6 °F 44.6 °F 72% 30.19 in 10.0 mi ESE 4.6 mph - N/A   Overcast
4:54 AM 53.6 °F 44.6 °F 72% 30.19 in 10.0 mi ESE 6.9 mph - N/A   Overcast
5:14 AM 53.6 °F 44.6 °F 72% 30.20 in 10.0 mi ESE 6.9 mph - N/A   Overcast
5:35 AM 51.8 °F 44.6 °F 76% 30.20 in 10.0 mi East 8.1 mph - N/A   Overcast
5:54 AM 51.8 °F 44.6 °F 76% 30.21 in 10.0 mi East 6.9 mph - N/A Rain Light Rain
6:14 AM 51.8 °F 46.4 °F 82% 30.21 in 7.0 mi ESE 5.8 mph - N/A   Overcast
6:35 AM 51.8 °F 46.4 °F 82% 30.22 in 3.0 mi East 6.9 mph - N/A Rain Rain
6:54 AM 50.0 °F 44.6 °F 82% 30.22 in 3.0 mi East 10.4 mph - 0.02 in   Drizzle
7:14 AM 48.2 °F 44.6 °F 87% 30.23 in 2.0 mi East 10.4 mph - 0.02 in Rain Light Rain
7:35 AM 50.0 °F 44.6 °F 82% 30.23 in 2.5 mi East 11.5 mph - 0.03 in   Light Drizzle
7:54 AM 50.0 °F 44.6 °F 82% 30.23 in 2.5 mi East 10.4 mph 17.3 mph 0.04 in Rain Light Rain
8:14 AM 50.0 °F 44.6 °F 82% 30.22 in 4.0 mi East 12.7 mph - N/A   Haze
8:35 AM 51.8 °F 46.4 °F 82% 30.21 in 4.0 mi East 13.8 mph - N/A   Haze
8:54 AM 51.8 °F 46.4 °F 82% 30.20 in 10.0 mi East 13.8 mph - N/A   Mostly Cloudy
9:14 AM 51.8 °F 46.4 °F 82% 30.20 in 10.0 mi ESE 12.7 mph - N/A   Mostly Cloudy
9:35 AM 51.8 °F 46.4 °F 82% 30.20 in 10.0 mi ESE 12.7 mph 18.4 mph N/A   Mostly Cloudy
9:54 AM 51.8 °F 46.4 °F 82% 30.19 in 10.0 mi East 15.0 mph - N/A   Mostly Cloudy
10:14 AM 51.8 °F 46.4 °F 82% 30.20 in 10.0 mi ESE 13.8 mph 19.6 mph N/A   Unknown
10:34 AM 51.8 °F 46.4 °F 82% 30.20 in 10.0 mi ESE 12.7 mph - N/A   Mostly Cloudy
10:54 AM 51.8 °F 46.4 °F 82% 30.21 in 10.0 mi ESE 10.4 mph - N/A   Mostly Cloudy
11:14 AM 53.6 °F 48.2 °F 82% 30.21 in 10.0 mi ESE 10.4 mph - N/A   Mostly Cloudy
11:34 AM 53.6 °F 48.2 °F 82% 30.21 in 10.0 mi ESE 10.4 mph - N/A   Scattered Clouds
11:54 AM 53.6 °F 48.2 °F 82% 30.21 in 10.0 mi ESE 11.5 mph - N/A   Scattered Clouds
12:14 PM 55.4 °F 50.0 °F 82% 30.20 in 10.0 mi SE 12.7 mph 17.3 mph N/A   Scattered Clouds
12:34 PM 55.4 °F 50.0 °F 82% 30.21 in 10.0 mi ESE 12.7 mph 18.4 mph N/A   Scattered Clouds
12:54 PM 57.2 °F 50.0 °F 77% 30.21 in 10.0 mi ESE 9.2 mph 17.3 mph N/A   Scattered Clouds
1:14 PM 57.2 °F 51.8 °F 82% 30.21 in 10.0 mi SE 12.7 mph 16.1 mph N/A   Scattered Clouds
1:34 PM 60.8 °F 51.8 °F 72% 30.21 in 10.0 mi SE 16.1 mph 19.6 mph N/A   Scattered Clouds
1:54 PM 60.8 °F 51.8 °F 72% 30.21 in 10.0 mi SE 13.8 mph - N/A   Scattered Clouds
2:14 PM 60.8 °F 51.8 °F 72% 30.21 in 10.0 mi SE 15.0 mph - N/A   Clear
2:34 PM 62.6 °F 51.8 °F 68% 30.20 in 10.0 mi SE 15.0 mph 19.6 mph N/A   Clear
2:54 PM 62.6 °F 51.8 °F 68% 30.20 in 10.0 mi ESE 12.7 mph 18.4 mph N/A   Clear
3:14 PM 62.6 °F 51.8 °F 68% 30.20 in 10.0 mi SE 16.1 mph 21.9 mph N/A   Clear
3:34 PM 62.6 °F 51.8 °F 68% 30.19 in 10.0 mi ESE 15.0 mph - N/A   Scattered Clouds
3:54 PM 64.4 °F 53.6 °F 68% 30.19 in 10.0 mi ESE 16.1 mph 20.7 mph N/A   Scattered Clouds
4:14 PM 64.4 °F 51.8 °F 64% 30.18 in 10.0 mi SE 15.0 mph - N/A   Clear
4:34 PM 66.2 °F 51.8 °F 60% 30.18 in 10.0 mi SE 12.7 mph 17.3 mph N/A   Clear
4:54 PM 66.2 °F 51.8 °F 60% 30.18 in 10.0 mi ESE 16.1 mph - N/A   Clear
5:14 PM 66.2 °F 51.8 °F 60% 30.18 in 10.0 mi SE 15.0 mph - N/A   Clear
5:34 PM 66.2 °F 51.8 °F 60% 30.18 in 10.0 mi ESE 12.7 mph - N/A   Scattered Clouds
5:54 PM 66.2 °F 50.0 °F 56% 30.17 in 10.0 mi ESE 10.4 mph 16.1 mph N/A   Scattered Clouds
6:14 PM 66.2 °F 51.8 °F 60% 30.17 in 10.0 mi SE 11.5 mph - N/A   Scattered Clouds
6:34 PM 66.2 °F 50.0 °F 56% 30.16 in 10.0 mi ESE 10.4 mph - N/A   Scattered Clouds
6:54 PM 66.2 °F 48.2 °F 52% 30.16 in 10.0 mi ESE 11.5 mph 16.1 mph N/A   Clear
7:14 PM 66.2 °F 48.2 °F 52% 30.17 in 10.0 mi SE 11.5 mph - N/A   Clear
7:34 PM 66.2 °F 48.2 °F 52% 30.17 in 10.0 mi SE 11.5 mph - N/A   Scattered Clouds
7:54 PM 64.4 °F 50.0 °F 59% 30.17 in 10.0 mi SE 10.4 mph - N/A   Scattered Clouds
8:14 PM 64.4 °F 48.2 °F 56% 30.17 in 10.0 mi ESE 10.4 mph - N/A   Scattered Clouds
8:34 PM 64.4 °F 48.2 °F 56% 30.17 in 10.0 mi ESE 9.2 mph - N/A   Scattered Clouds
8:54 PM 64.4 °F 48.2 °F 56% 30.17 in 10.0 mi ESE 8.1 mph - N/A   Scattered Clouds
9:14 PM 62.6 °F 48.2 °F 59% 30.18 in 10.0 mi ESE 8.1 mph - N/A   Mostly Cloudy
9:34 PM 62.6 °F 48.2 °F 59% 30.18 in 10.0 mi ESE 8.1 mph - N/A   Mostly Cloudy
9:54 PM 62.6 °F 48.2 °F 59% 30.18 in 10.0 mi ESE 8.1 mph - N/A   Scattered Clouds
10:14 PM 60.8 °F 48.2 °F 63% 30.18 in 10.0 mi ESE 8.1 mph - N/A   Scattered Clouds
10:34 PM 60.8 °F 48.2 °F 63% 30.18 in 10.0 mi ESE 8.1 mph - N/A   Clear
10:54 PM 60.8 °F 48.2 °F 63% 30.18 in 10.0 mi ESE 9.2 mph - N/A   Clear
11:14 PM 59.0 °F 48.2 °F 67% 30.18 in 10.0 mi SE 9.2 mph - N/A   Clear
11:34 PM 57.2 °F 48.2 °F 72% 30.18 in 10.0 mi SE 8.1 mph - N/A   Clear
11:54 PM 57.2 °F 46.4 °F 67% 30.18 in 10.0 mi SSE 10.4 mph - N/A   Clear